Regional Weather Roundup
Issued by NWS

Home | Current Version | Previous Version | Graphics & Text | Print | Product List | Glossary On
Versions: 1 2 3 4 5 6 7 8 9 10 11 12 13 14 15 16 17 18 19 20 21 22 23 24 25 26 27 28 29 30 31 32 33 34 35 36 37 38 39 40 41 42 43 44 45 46 47 48 49 50
000
ASUS43 KDTX 200010
RWRMI
MICHIGAN HOURLY REGIONAL WEATHER ROUNDUP
NATIONAL WEATHER SERVICE DETROIT/PONTIAC MI
800 PM EDT TUE AUG 19 2014

NOTE: "FAIR" INDICATES FEW OR NO CLOUDS BELOW 12,000 FEET WITH NO
SIGNIFICANT WEATHER AND/OR OBSTRUCTION TO VISIBILITY.

MIZ047>049-052>055-059>063-066>070-074>076-081>083-200100-
SOUTHEAST LOWER MICHIGAN

CITY           SKY/WX    TMP DP  RH WIND       PRES   REMARKS
ADRIAN         CLOUDY    66  64  93 SW7       29.80S
6HR MIN TEMP:  65; 6HR MAX TEMP:  85; 6HR PCP:  0.15;

ALMA           CLOUDY    71  67  89 SW8       29.73R
6HR MIN TEMP:  68; 6HR MAX TEMP:  71;

ANN ARBOR      CLOUDY    67  63  87 W7        29.76F
BAD AXE        CLOUDY    69  67  96 S9        29.75R
6HR MIN TEMP:  69; 6HR MAX TEMP:  79;

CARO           CLOUDY    67  65  95 S7        29.75R
DETROIT CITY   LGT RAIN  70  66  87 SE8       29.78F
6HR MIN TEMP:  70; 6HR MAX TEMP:  85; 6HR PCP:  0.37;

DETROIT        LGT RAIN  67  64  90 CALM      29.77F
6HR MIN TEMP:  67; 6HR MAX TEMP:  85; 6HR PCP:  0.29;

FLINT          CLOUDY    68  64  87 S5        29.75S
6HR MIN TEMP:  66; 6HR MAX TEMP:  75; 6HR PCP:  0.67;

GROSSE ILE     LGT RAIN  66  64  94 CALM      29.76F
HILLSDALE      MOCLDY    69  69 100 S7        29.79S
6HR MIN TEMP:  66; 6HR MAX TEMP:  85;

HOWELL         CLOUDY    65  64  95 S5        29.76S
6HR MIN TEMP:  65; 6HR MAX TEMP:  80;


CITY           SKY/WX    TMP DP  RH WIND       PRES   REMARKS
JACKSON        CLOUDY    67  65  93 SW7       29.78R
6HR MIN TEMP:  65; 6HR MAX TEMP:  82; 6HR PCP:  0.22;

LAMBERTVILLE   CLOUDY    68  64  88 SW3       29.79R
LANSING        CLOUDY    67  64  90 S7        29.75S
6HR MIN TEMP:  65; 6HR MAX TEMP:  77; 6HR PCP:  0.67;

LAPEER         FAIR      65  64  94 S3        29.77S
MASON          CLOUDY    65  63  93 S7        29.76S
MONROE         CLOUDY    66  64  94 E3        29.76F
MT. CLEMENS    CLOUDY    68  66  94 S5        29.78R
6HR MIN TEMP:  67; 6HR MAX TEMP:  81; 6HR PCP:  0.55;

PONTIAC        CLOUDY    67  64  90 S3        29.77R
6HR MIN TEMP:  66; 6HR MAX TEMP:  82; 6HR PCP:  0.58;

PORT HOPE        N/A     71  66  84 VRB3      29.72R
6HR MIN TEMP:  71; 6HR MAX TEMP:  80; 6HR PCP:  0.01;

PORT HURON     RAIN      64  64 100 SE6       29.78F
TRI CITIES     CLOUDY    70  66  87 S9        29.74R
6HR MIN TEMP:  70; 6HR MAX TEMP:  73; 6HR PCP:  0.30;

TROY           CLOUDY    68  66  92 CALM      29.79F
SAGINAW HB     CLOUDY    70  70 100 S8        29.73S
$$
MIZ043>046-050>051-056>058-064>065-071>073-077>080-200100-
SOUTHWEST LOWER MICHIGAN

CITY           SKY/WX    TMP DP  RH WIND       PRES   REMARKS
BATTLE CREEK   PTCLDY    71  66  84 S8        29.76S
6HR MIN TEMP:  66; 6HR MAX TEMP:  82;

BENTON HARBOR  CLEAR     77  65  66 S6        29.72F
6HR MIN TEMP:  68; 6HR MAX TEMP:  82; 6HR PCP:  0.07;

BIG RAPIDS     MOCLDY    73  69  89 SW3       29.71S
6HR MIN TEMP:  67; 6HR MAX TEMP:  76;

COLDWATER      PTCLDY    72  68  89 CALM      29.76F
6HR MIN TEMP:  68; 6HR MAX TEMP:  85;

FREMONT        MOCLDY    74  67  81 SW6       29.70F HAZE
6HR MIN TEMP:  68; 6HR MAX TEMP:  77;

HOLLAND        MOCLDY    73  69  87 SW3       29.73F
6HR MIN TEMP:  70; 6HR MAX TEMP:  80; 6HR PCP:  0.60;

GRAND RAPIDS   MOCLDY    73  72  96 S7        29.72F
6HR MIN TEMP:  69; 6HR MAX TEMP:  73; 6HR PCP:  1.05;

IONIA          CLOUDY    70  65  85 S7        29.72S
KALAMAZOO      PTCLDY    72  67  84 S8        29.75S
6HR MIN TEMP:  67; 6HR MAX TEMP:  84; 6HR PCP:  0.33;

LUDINGTON      CLEAR     72  67  83 SW7       29.70S
6HR MIN TEMP:  72; 6HR MAX TEMP:  77;

MARSHALL       MOCLDY    68  66  94 S6        29.76S
MOUNT PLEASANT MOCLDY    72  68  88 S7        29.71R
6HR MIN TEMP:  67; 6HR MAX TEMP:  74; 6HR PCP:  0.01;

MUSKEGON       MOCLDY    72  68  87 W3        29.71S
6HR MIN TEMP:  70; 6HR MAX TEMP:  77; 6HR PCP:  0.31;

SOUTH HAVEN    MOCLDY    77  71  81 SW5       29.72S
$$
MIZ016>042-200100-
NORTHERN LOWER MICHIGAN

CITY           SKY/WX    TMP DP  RH WIND       PRES   REMARKS
ALPENA         MOCLDY    73  66  78 S7        29.70S
6HR MIN TEMP:  69; 6HR MAX TEMP:  78; 6HR PCP: TRACE;

BEAVER ISLAND  CLOUDY    68  64  88 E5        29.70S
BELLAIRE       CLOUDY    72  66  82 CALM      29.69R
6HR MIN TEMP:  71; 6HR MAX TEMP:  79;

CADILLAC       MOCLDY    70  67  92 S5        29.72S
CHARLEVOIX     MOCLDY    67  65  94 CALM      29.73R
6HR MIN TEMP:  67; 6HR MAX TEMP:  73;

FRANKFORT      CLEAR     69  64  84 CALM      29.69S
GAYLORD        MOCLDY    70  64  81 SW9       29.72R
6HR MIN TEMP:  70; 6HR MAX TEMP:  75; 6HR PCP:  0.02;

GRAYLING       MOCLDY    72  69  89 S3        29.73R
6HR MIN TEMP:  71; 6HR MAX TEMP:  75;

HARBOR SPRINGS LGT RAIN  66  64  92 SW3       29.71R
HOUGHTON LAKE  CLOUDY    70  67  90 W3        29.73S
6HR MIN TEMP:  70; 6HR MAX TEMP:  74; 6HR PCP: TRACE;

MANISTEE       CLEAR     72  63  73 W6        29.70S
OSCODA         CLOUDY    70  67  92 S3        29.71S
PELLSTON       CLOUDY    68  64  87 N6        29.70S
6HR MIN TEMP:  68; 6HR MAX TEMP:  76; 6HR PCP: TRACE;

ROGERS CITY    CLOUDY    68  64  88 NW6       29.71R
TRAVERSE CITY  MOCLDY    74  64  71 SW3       29.68R
6HR MIN TEMP:  74; 6HR MAX TEMP:  78;

$$
MIZ007>008-015-200100-
EASTERN UPPER MICHIGAN

CITY           SKY/WX    TMP DP  RH WIND       PRES   REMARKS
KINROSS        CLOUDY    61  61 100 E8        29.73R
6HR MIN TEMP:  61; 6HR MAX TEMP:  66; 6HR PCP:  0.16;

MACKINAC ISLAN CLOUDY    57  57 100 E12G21    29.71R FOG
6HR MIN TEMP:  57; 6HR MAX TEMP:  68; 6HR PCP:  0.01;

NEWBERRY       CLOUDY    65  63  94 S6        29.70S
S. S. MARIE    CLOUDY    61  59  93 SE7       29.73S FOG
6HR MIN TEMP:  61; 6HR MAX TEMP:  63; 6HR PCP:  0.11;

MUNISING         N/A     64  61  90 NE3       29.68R
6HR MIN TEMP:  64; 6HR MAX TEMP:  77; 6HR PCP:  0.09;

$$
MIZ004>006-011>014-085-200100-
CENTRAL UPPER MICHIGAN

CITY           SKY/WX    TMP DP  RH WIND       PRES   REMARKS
MANISTIQUE     FOG       62  62 100 S3        29.69R VSB 1/4
ESCANABA       CLOUDY    64  63  94 SE7       29.67F
6HR MIN TEMP:  64; 6HR MAX TEMP:  72; 6HR PCP:  0.56;

MENOMINEE      CLOUDY    66  63  88 NW3       29.69R
6HR MIN TEMP:  66; 6HR MAX TEMP:  75; 6HR PCP:  0.55;

SAWYER-GWINN   DRZL/FOG  63  61  94 N10       29.71R VSB 1/4
$$
MIZ001>003-009>011-084-200100-
WESTERN UPPER MICHIGAN

CITY           SKY/WX    TMP DP  RH WIND       PRES   REMARKS
IRON MOUNTAIN  CLOUDY    68  60  75 NW10      29.71R
6HR MIN TEMP:  68; 6HR MAX TEMP:  78; 6HR PCP:  0.05;

HOUGHTON       FOG       53  51  93 NW7       29.72S VSB 1/2
6HR MIN TEMP:  53; 6HR MAX TEMP:  63;

COPPER HARBOR    N/A     52  50  93 CALM      29.74R
6HR MIN TEMP:  50; 6HR MAX TEMP:  56;

IRONWOOD       CLOUDY    57  55  94 NE6       29.75S
$$

ABBREVIATIONS USED IN REMARKS
   TC - TEMPERATURE IN CELSIUS
  WCI - WIND CHILL INDEX
   HX - HEAT INDEX
  VSB - VISIBILITY




USA.gov is the U.S. government's official web portal to all federal, state and local government web resources and services.